Вернуться в каталог

FENGYUN 1C DEB

АктивенSSO
NORAD 37439·DEBRIS·🇨🇳 China

Запущен May 10, 1999 с Taiyuan Satellite Launch Center

Loading…

Ближайшие Пролёты (ближайшие 24 часа)

TLE

УстаревающийSource: Space-Track

Эпоха: Sep 8, 2026, 12:12 UTC

1 37439U 99025EHH 26251.50853392  .00001926  00000-0  92158-3 0  9998
2 37439  99.0131 344.4028 0057960  54.6917  10.2283 14.19434125650871

Отслеживайте FENGYUN 1C DEB в реальном времени с AllMySat

Download on the App Store